409  
ASUS42 KTBW 252018  
RWRFL  
FLORIDA REGIONAL WEATHER ROUNDUP  
NATIONAL WEATHER SERVICE TAMPA BAY RUSKIN FL  
300 PM EST SAT JAN 25 2020  
 
NOTE: "FAIR" INDICATES FEW OR NO CLOUDS BELOW 12,000 FEET WITH NO  
SIGNIFICANT WEATHER AND/OR S TO VISIBILITY
.  
 
FLZ001>010-012>015-112-114-115-252100-  
PANHANDLE FLORIDA  
 
CITY SKY/WX TMP DP RH WIND PRES REMARKS
 
PENSACOLA FAIR 61 36 39 MISG 30.11F  
MILTON NAS FAIR 59 37 44 NW9 30.12F  
CRESTVIEW FAIR 59 34 39 NW10 30.12F  
DUKE FIELD FAIR 59 36 42 NW8 30.10F  
VALPARAISO FAIR 60 35 39 NW7 30.10F  
MARY ESTHER SUNNY 59 34 39 NW12 30.10F  
TRI COUNTY FAIR 60 36 40 NW6 30.10F  
PANAMA CITY FAIR 59 36 42 W9 30.09F  
TYNDALL AFB FAIR 56 41 57 S10 30.11F  
APALACHICOLA FAIR 58 38 47 W8 30.10F  
 
STATION/POSITION SKY/WX TEMP WIND PRES WAVE SWELL
 
AIR SEA DIR/SP/G HT/PER HT/PER  
(F) (DEG/KT/KT) (MB) (FT/S) (FT/S)  
30.1N 87.6W 54 62 290/ 10/ 14 1021.0F 1  
29.2N 88.2W 56 69 350/ 6/ 8 1021.7  
28.8N 86.0W 72 330/ 8/ 14 1020.4F 4/ 6 3/ 6  
PANAMA CITY BEAC 52 61 270/ 12/ 14 1020.1F  
TOWER C 52 300/ 16/ 18 1020.0F  
28.5N 84.5W 57 300/ 10/ 14 1021.1F 5/ 6 3/ 6  
 

 
FLZ011-016>038-118-127-128-134-139-239-252100-  
NORTH FLORIDA  
 
CITY SKY/WX TMP DP RH WIND PRES REMARKS
 
MARIANNA FAIR 58 36 43 W8 30.09  
TALLAHASSEE FAIR 59 34 39 W12 30.09F  
PERRY FAIR 63 35 36 NW8 30.09F  
LIVE OAK SUNNY 61 36 39 W7 30.07F  
CROSS CITY FAIR 65 38 36 MISG 30.08F  
LAKE CITY FAIR 63 32 31 W10G20 30.06F  
GAINESVILLE FAIR 65 35 33 W13 30.08F  
WILLISTON FAIR 66 35 31 NW12 30.07S  
PALATKA FAIR 63 32 31 NW13G21 30.05F  
MAYPORT NAS FAIR 63 37 38 W12 30.04F  
JACKSONVILLE FAIR 64 36 35 W13 30.03F  
JAX NAS FAIR 66 32 28 NW13G21 30.04F  
JAX CECIL SUNNY 68 32 26 W12 30.05F  
FERNANDINA BEA FAIR 64 37 38 NW14 30.03F  
ST AUGUSTINE FAIR 65 37 35 W9 30.05F  
PALM COAST SUNNY 66 34 30 NW10 30.04F  
 
STATION/POSITION SKY/WX TEMP WIND PRES WAVE SWELL
 
AIR SEA DIR/SP/G HT/PER HT/PER  
(F) (DEG/KT/KT) (MB) (FT/S) (FT/S)  
SHELL POINT NOT AVBL  
KEATON BEACH 53 260/ 13/ 14 1019.4F  
CEDAR KEY 56 280/ 12/ 15 1019.4F  
FERNANDINA 64 57 1017.0F  
30.7N 81.3W 57 N/A 2/11 2/11  
MAYPORT 61 58 1017.2F  
31.4N 80.9W 56 57 250/ 8/ 10 1016.5F 3/12 3/12  
ST AUGUSTINE 64 59 270/ 4/ 7 1017.1F  
 

 
FLZ040-043>046-052-053-057-058-063-144-252100-  
INTERIOR CENTRAL FLORIDA  
 
CITY SKY/WX TMP DP RH WIND PRES REMARKS
 
OCALA FAIR 67 36 31 W10 30.07F  
LEESBURG FAIR 70 39 32 VRB7 30.06F  
SANFORD FAIR 69 34 27 W12 30.03F  
ORLANDO EXEC FAIR 69 33 26 W12 30.04F  
ORLANDO INTL FAIR 70 36 28 NW10 30.04F  
KISSIMMEE FAIR 69 35 28 NW8 30.06F  
WINTER HAVEN FAIR 71 37 28 NW8 30.06F  
LAKELAND SUNNY 70 37 30 NW9G21 30.07S  
SEBRING FAIR 72 40 31 N13 30.05F  
OKEECHOBEE FAIR 72 43 35 N5 30.03F  
 

 
FLZ041-047-054-059-064-141-147-252100-  
EAST CENTRAL FLORIDA  
 
CITY SKY/WX TMP DP RH WIND PRES REMARKS
 
ORMOND BEACH SUNNY 66 37 34 NW8 30.03F  
DAYTONA BEACH SUNNY 67 35 30 NW10 30.03F  
DELAND FAIR 68 34 28 W10 30.04F  
NEW SMYRNA BEA SUNNY 68 36 30 W12 30.04F  
JFK SPACE CTR FAIR 66 46 46 NE6 30.03F  
TITUSVILLE SUNNY 72 36 26 W14 30.04F  
CAPE CANAVERAL FAIR 66 47 51 NE8 30.03F  
PATRICK AFB FAIR 67 51 54 NE7 30.04F  
MELBOURNE FAIR 70 40 33 N8 30.03F  
VERO BEACH FAIR 69 50 50 NE10 30.04F  
FT PIERCE FAIR 69 51 52 NE6 30.04F  
STUART MOSUNNY 68 54 60 E9 30.05F  
 
STATION/POSITION SKY/WX TEMP WIND PRES WAVE SWELL
 
AIR SEA DIR/SP/G HT/PER HT/PER  
(F) (DEG/KT/KT) (MB) (FT/S) (FT/S)  
28.5N 80.2W 63 74 340/ 14/ 16 1018.2F 6/12 5/12  
28.9N 78.5W 69 320/ 17/ 21 1017.1F 7/11 5/11  
TRIDENT PIER 66 66 1018.4F  
28.4N 80.5W 66 N/A 3/12 2/12  
27.5N 80.2W 71 N/A 5/12 3/12  
 

 
FLZ050-056-061-142-242-148-248-149-249-151-251-155-255-  
160-260-252100-  
WEST CENTRAL FLORIDA  
 
CITY SKY/WX TMP DP RH WIND PRES REMARKS
 
CRYSTAL RIVER FAIR 61 37 41 NW9G18 30.10S  
INVERNESS FAIR 64 41 42 W8 30.08S HAZE  
BROOKSVILLE FAIR 66 35 31 NW13 30.09S  
CLEARWATER AIR FAIR 63 37 39 NW13 30.10R  
ST PETE CLEARW FAIR 67 38 34 NW14 30.09S  
TAMPA INTL FAIR 68 39 34 NW9 30.09S  
TAMPA EXEC FAIR 70 43 37 NW8 30.09R  
PLANT CITY FAIR 70 46 43 NW13 30.09S  
MACDILL AFB FAIR 66 41 40 NW10 30.08S  
PETER O KNIGHT CLOUDY 70 46 43 W8 30.09R  
ST PETERSBURG FAIR 66 43 43 N9 30.06F  
SARASOTA FAIR 70 48 45 N10G17 30.06F  
VENICE FAIR 68 52 56 NW17 30.08S  
 
STATION/POSITION SKY/WX TEMP WIND PRES WAVE SWELL
 
AIR SEA DIR/SP/G HT/PER HT/PER  
(F) (DEG/KT/KT) (MB) (FT/S) (FT/S)  
27.3N 84.3W 73 N/A 4/ 7  
CLEARWATER BEACH 57 62 340/ 12/ 14 1019.7S  
MIDDLE TAMPA BAY 63 1019.0F  
VENICE 63 65 310/ 16/ 16 1018.3F  
 

 
FLZ066-069-070-075>078-162-262-165-265-252100-  
SOUTHWEST FLORIDA AND KEYS  
 
CITY SKY/WX TMP DP RH WIND PRES REMARKS
 
PUNTA GORDA FAIR 74 43 32 NW8 30.06F  
FT MYERS FAIR 77 41 27 NW13 30.03F  
SOUTHWEST INTL FAIR 76 42 29 NW8 30.04F  
NAPLES FAIR 74 53 48 W13 30.04F  
MARCO ISLAND FAIR 76 54 46 N6 30.04F  
IMMOKALEE FAIR 79 43 27 N6 30.03F  
MARATHON FAIR 72 64 76 NW9 30.02F  
KEY WEST NAS FAIR 72 64 76 N13 30.04F  
KEY WEST INTL FAIR 74 65 73 N12 30.04F  
 
STATION/POSITION SKY/WX TEMP WIND PRES WAVE SWELL
 
AIR SEA DIR/SP/G HT/PER HT/PER  
(F) (DEG/KT/KT) (MB) (FT/S) (FT/S)  
NAPLES 67 67 1017.3F  
26.0N 85.6W 71 79 350/ 14/ 17 1020.0  
DRY TORTUGAS 69 30/ 16/ 17 1018.0F  
SAND KEY 69 10/ 14/ 17 N/A  
SOMBRERO KEY 68 340/ 14/ 15 N/A  
 

 
FLZ067-068-071>074-168-172>174-252100-  
SOUTHEAST FLORIDA  
 
CITY SKY/WX TMP DP RH WIND PRES REMARKS
 
W PALM BEACH FAIR 78 58 49 N7 30.03F  
BOCA RATON SUNNY 77 59 53 NW10 30.03F  
FT LAUDER-EXEC FAIR 75 61 61 NW8 30.02F  
FT LAUDERDALE FAIR 77 62 59 N9 30.02F  
POMPANO BEACH FAIR 76 58 53 NW9 30.02F  
PEMBROKE PINES FAIR 77 61 57 NW12 30.04F  
MIAMI FAIR 78 60 53 VRB6 30.03F  
WEST KENDALL FAIR 75 61 61 N12 30.02F  
HOMESTEAD FAIR 77 63 60 NW9 30.00F  
 
STATION/POSITION SKY/WX TEMP WIND PRES WAVE SWELL
 
AIR SEA DIR/SP/G HT/PER HT/PER  
(F) (DEG/KT/KT) (MB) (FT/S) (FT/S)  
VIRGINIA KEY 76 73 280/ 5/ 9 1017.2F  
LAKE WORTH 350/ 6/ 9 N/A  
FOWEY ROCKS 73 76 330/ 12/ 13 1016.7F  
SETTLEMENT POINT 71 340/ 13/ 15 1017.0F  
 

 
 
 
 
CLICK HERE TO GO TO PREVIOUS BULLETINS.

The Nexlab FL Page Main Text Page